Regional Weather Roundup
Issued by NWS

Home | Current Version | Previous Version | Graphics & Text | Print | Product List | Glossary On
Versions: 1 2 3 4 5 6 7 8 9 10 11 12 13 14 15 16 17 18 19 20 21 22 23 24 25 26 27 28 29 30 31 32 33 34 35 36 37 38 39 40 41 42 43 44 45 46 47 48 49 50
000
ASUS43 KMPX 250910
RWRMN
WEATHER ROUNDUP FOR MINNESOTA
NATIONAL WEATHER SERVICE TWIN CITIES/CHANHASSEN MN
400 AM CDT SAT OCT 25 2014


NOTE: "FAIR" INDICATES FEW OR NO CLOUDS BELOW 12,000 FEET WITH NO
SIGNIFICANT WEATHER AND/OR OBSTRUCTIONS TO VISIBILITY. N/A MEANS
CURRENT SKY AND/OR WEATHER CONDITIONS ARE NOT AVAILABLE.

MNZ060>063-068>070-251000-
   Twin Cities Metro

CITY           SKY/WX    TMP DP  RH WIND       PRES   REMARKS
TWIN CITIES    PTCLDY    58  36  43 NW12      29.95R
ST PAUL        PTCLDY    58  36  43 NW13      29.95R
CRYSTAL        PTCLDY    58  36  43 NW10      29.95R
BLAINE         PTCLDY    55  37  50 W10       29.95R
LAKEVILLE      PTCLDY    54  39  58 W8        29.96R
EDEN PRAIRIE   PTCLDY    59  36  42 NW10      29.94S
SOUTH ST PAUL  PTCLDY    59  35  40 NW12G17   29.94S
LAKE ELMO      FAIR      55  37  50 NW10G16   29.94S
$$
MNZ001>005-007-008-013>017-022>024-027-028-251000-
   Northwest Minnesota

CITY           SKY/WX    TMP DP  RH WIND       PRES   REMARKS
BEMIDJI        CLEAR     46  32  59 W14       29.92R
HALLOCK        CLEAR     43  30  61 W6        29.93R
ROSEAU         CLEAR     45  34  65 W8        29.89R
WARROAD        CLEAR     46  34  61 W13G20    29.86S
THIEF RVR FALL CLEAR     43  30  61 W8        29.95R
CROOKSTON      CLEAR     45  34  65 NW13      29.98R
FOSSTON        CLEAR     36  30  80 W6        29.97R
DETROIT LAKES  CLEAR     46  32  57 NW13      30.00R
MOORHEAD       PTCLDY    48  32  53 NW9       30.02S
PARK RAPIDS    CLEAR     46  32  58 NW13      29.94R
MAHNOMEN       FAIR      40  32  72 W9        29.98R
$$
MNZ006-009>011-018-025>026-251000-
   North Central Minnesota

CITY           SKY/WX    TMP DP  RH WIND       PRES   REMARKS
BAUDETTE       CLEAR     46  32  58 VRB7      29.84R
FLAG ISLAND    CLEAR     46  36  66 W21G30    29.81R
INTL FALLS     CLEAR     47  33  58 W13G21    29.80R
WASKISH        CLEAR     48  37  66 W14       29.88R
BIG FORK       CLEAR     50  32  50 W9        29.85S
LONGVILLE      CLEAR     52  34  50 W12G18    29.90S
GRAND RAPIDS   CLEAR     52  30  43 W13G23    29.86S
CRANE LAKE     CLEAR     48  30  49 W7        29.79R
ORR            CLEAR     48  30  49 W10G21    29.78R
COOK           CLEAR     48  34  57 W12G21    29.81R
WALKER         FAIR      48  32  53 W14G24    29.91S
$$
MNZ012-019>021-037-251000-
   Northeast Minnesota

CITY           SKY/WX    TMP DP  RH WIND       PRES   REMARKS
DULUTH         CLEAR     52  34  50 W15G23    29.82R
ELY            CLEAR     50  30  46 W18G25    29.76R
HIBBING        CLEAR     52  31  44 NW14G21   29.82R
EVELETH        CLEAR     52  34  50 W13G22    29.82S
DULUTH HARBOR  CLEAR     52  39  62 SW9       29.83R
TWO HARBORS    CLEAR     54  23  30 W10G18    29.77S
SILVER BAY     CLEAR     54  34  47 W8        29.74S
GRAND MARAIS     N/A     55  34  45 NW8G21    29.67S
G MARAIS ARPRT CLEAR     48  30  49 W10G18    29.69S
$$
MNZ029>031-032-039>041-046>048-054>057-064-251000-
   West Central Minnesota

CITY           SKY/WX    TMP DP  RH WIND       PRES   REMARKS
FERGUS FALLS   CLEAR     45  28  53 W3        30.02S
WHEATON        MOCLDY    52  36  54 W7        30.06R
MORRIS         PTCLDY    52  36  54 NW8       30.01S
ALEXANDRIA     CLEAR     47  34  60 W8        30.01R
ELBOW LAKE     FAIR      44  34  68 NW6       30.01S
WADENA         CLEAR     46  34  61 NW8       29.97R
GLENWOOD       CLEAR     48  36  61 W8        30.01S
APPLETON       MOCLDY    55  36  47 NW8       30.03R
BENSON         MOCLDY    54  36  50 N8        30.02S
ORTONVILLE     CLOUDY    55  36  47 NW8       30.04S
MADISON        CLOUDY    57  37  47 NW6       30.04R
WILLMAR        FAIR      54  37  54 NW9       30.03R
$$
MNZ033>034-036-042>043-049>051-058-059-251000-
   Central Minnesota

CITY           SKY/WX    TMP DP  RH WIND       PRES   REMARKS
ST CLOUD       PTCLDY    56  34  43 W10       29.96S
SAUK CENTRE    FAIR      44  35  70 W7        29.99S
PAYNESVILLE    PTCLDY    48  35  61 SW8       30.00R
AITKIN         CLEAR     52  34  50 W3        29.89S
PINE RIVER     CLEAR     48  34  57 CALM      29.96S
BRAINERD       CLEAR     51  33  50 W9        29.94R
STAPLES        CLEAR     45  34  65 W7        29.96R
LONG PRAIRIE   FAIR      50  32  50 W8        29.98S
LITTLE FALLS   CLEAR     50  32  50 W6        29.96S
LITCHFIELD     PTCLDY    57  36  44 NW8       30.00R
BUFFALO        PTCLDY    55  35  46 W7        29.99R
MAPLE LAKE     PTCLDY    54  38  54 W8        29.99R
$$
MNZ037-044-045-052-053-251000-
   East Central Minnesota

CITY           SKY/WX    TMP DP  RH WIND       PRES   REMARKS
PRINCETON      CLEAR     52  36  54 W6        29.95S
MORA           CLEAR     50  32  50 W6        29.94R
CAMBRIDGE      CLEAR     54  39  58 W7        29.92S
RUSH CITY      PTCLDY    49  36  61 W5        29.92S
MOOSE LAKE     CLEAR     50  32  50 W8        29.86S
HINCKLEY       FAIR      48  36  61 W5        29.90S
CLOQUET        CLEAR     52  34  50 W12G18    29.85R
MCGREGOR       CLEAR     52  34  50 W10G16    29.89S
$$
MNZ071>073-080-081-089-090-097-098-251000-
   Southwest Minnesota

CITY           SKY/WX    TMP DP  RH WIND       PRES   REMARKS
MONTEVIDEO     MOCLDY    55  37  50 N9        30.04R
GRANITE FALLS  MOCLDY    51  39  63 W8        30.05R
CANBY          CLOUDY    56  35  44 NW8       30.06R
MARSHALL       CLOUDY    55  36  47 NW12      30.03S
REDWOOD FALLS  CLOUDY    57  36  45 NW10      30.01S
OLIVIA         CLOUDY    54  41  62 NW9       30.01R
PIPESTONE      MOCLDY    55  39  54 N6        30.06R
WINDOM         CLOUDY    57  36  44 NW13      30.02F
WORTHINGTON    MOCLDY    52  39  62 NW6       30.05F
JACKSON        MOCLDY    55  36  47 NW7       30.03S
TRACY          CLOUDY    58  38  46 NW9       30.04S
SLAYTON        MOCLDY    55  37  50 NW8       30.05S
$$
MNZ065>067-074>077-082>085-091>093-251000-
   South Central Minnesota

CITY           SKY/WX    TMP DP  RH WIND       PRES   REMARKS
MANKATO        CLEAR     55  37  50 NW10      29.98S
NEW ULM        PTCLDY    54  39  58 NW9       30.00S
ST JAMES       MOCLDY    55  39  54 W7        30.01F
FAIRMONT       MOCLDY    57   1  10 NW9       30.01R
GLENCOE        PTCLDY    54  42  63 W7        29.98R
FARIBAULT      CLEAR     52  39  62 W5        29.97R
OWATONNA       CLEAR     46  39  76 W3        29.98R
WASECA         CLEAR     43  36  75 W7        30.00R
ALBERT LEA     CLEAR     50  41  71 W5        29.99R
$$
MNZ078>079-086>088-094>096-251000-
   Southeast Minnesota

CITY           SKY/WX    TMP DP  RH WIND       PRES   REMARKS
ROCHESTER      PTCLDY    51  44  77 NW9       29.97R
RED WING       CLEAR     43  43 100 CALM      29.93S FOG
STANTON        PTCLDY    52  41  66 W5        29.95R
DODGE CENTER   PTCLDY    52  43  71 W7        29.97R
WINONA         CLEAR     48  46  93 NW6       29.93R
AUSTIN         CLEAR     52  43  71 W8        29.97S
PRESTON        CLEAR     50  44  79 NW10      29.95S
$$
ABBREVIATIONS USED IN REMARKS
   TC - TEMPERATURES IN CELSIUS
  WCI - WIND CHILL INDEX
   HX - HEAT INDEX
  VSB - VISIBILITY
$$



USA.gov is the U.S. government's official web portal to all federal, state and local government web resources and services.